Volver al catálogo

SKYMED 2

ActivoCienciaSSO
NORAD 32376·PAYLOAD·🇮🇹 Italy

Lanzado Dec 9, 2007 desde Vandenberg Space Force Base

Loading…

Próximos Pases (próximas 24 horas)

TLE

ActualizadoSource: Space-Track

Época: Sep 14, 2026, 14:42 UTC

1 32376U 07059A   26257.61253469  .00000269  00000-0  40306-4 0  9994
2 32376  97.8916  79.9360 0001333  90.0462 270.0904 14.82149394 15258

Sigue SKYMED 2 en tiempo real con AllMySat

Download on the App Store